Location: Estes Par
(40.3770°N, 105.5210°W)
Time: 08:22:28
(UTC-07:00)

OTV 5 (USA 277) - Pass Details

Date: 10 October 2017
Orbit: 404 x 417 km, 43.0° (Epoch: 07 September)

Event Time Altitude Azimuth Distance (km) Brightness Sun altitude
Rises 19:14:12 0° 227° (SW) 2,338 ? -9.4°
Reaches altitude 10° 19:16:24 10° 218° (SW) 1,478 ? -9.8°
Maximum altitude 19:19:29 35° 152° (SSE) 693 ? -10.4°
Enters shadow 19:21:37 17° 93° (E) 1,143 ? -10.8°
